[[{"header":{"parameterUnit":"m.s-1","parameterCategory":1,"la1":30.2991,"la2":30.254,"lo1":-89.0895,"lo2":-89.0444,"dy":0.0017,"dx":0.0017,"nx":28,"ny":28,"refTime":"2024-10-03T09:00:00:Z","depth":0,"parameterNumber":2,"parameterNumberName":"U-component_of_WINDS"},"data":[0,0,0,0,0,0,0,0,0,0,0,0,0,0,0,0,0,0,0,0,0,0,0,0,0,0,0,0,0,0,0,0,0,0,0,0,0,0,0,0,0,0,0,0,0,0,0,0,0,0,0,0,0,0,0,0,0,0,1.5253,1.5251,0,1.5062,1.506,1.5058,1.4952,1.4952,1.4951,1.4951,1.4725,1.472,1.4714,0,0,0,0,0,0,0,0,0,0,0,0,0,1.55,1.5496,1.5253,1.5251,1.5248,1.5063,1.506,1.5057,1.4952,1.4952,1.4951,1.4951,1.4727,1.4721,1.4714,0,0,0,0,0,0,0,0,0,0,0,0,0,1.5359,1.5495,1.5253,1.5174,1.5165,1.5063,1.506,1.5057,1.4952,1.4952,1.4951,1.4951,1.473,1.4721,1.4713,1.4666,0,0,1.4686,1.4682,0,0,0,0,0,0,0,0,1.5367,1.535,1.5188,1.5179,1.5169,1.5031,1.5064,1.4924,1.4952,1.5032,1.4951,1.4951,1.4825,1.4809,1.4773,1.4655,1.4646,1.4685,1.468,1.4676,1.4674,0,0,0,0,0,0,0,1.5377,1.5357,1.5177,1.5186,1.5174,1.514,1.5119,1.5037,1.4932,1.5025,1.5017,1.4997,1.482,1.4782,1.4767,1.4642,1.4686,1.4678,1.4672,1.4669,1.4475,1.4475,0,0,0,0,0,0,1.5403,1.5366,1.5183,1.5171,1.527,1.5136,1.5113,1.5075,1.4933,1.4911,1.4998,1.4993,1.4797,1.4777,1.4758,1.4694,1.4676,1.4668,1.4663,1.4475,1.4475,1.4475,0,0,0,0,0,0,1.5409,1.5388,1.519,1.5267,1.5239,1.5132,1.509,1.5072,1.5034,1.4913,1.4891,1.498,1.4796,1.4771,1.4692,1.4685,1.4664,1.4656,1.4475,1.4475,1.4475,1.4566,0,0,0,0,0,0,1.5417,1.5391,1.5378,1.5268,1.5236,1.5135,1.509,1.5068,1.5023,1.5015,1.489,1.4868,1.4793,1.4706,1.4683,1.4673,1.465,1.4475,1.4475,1.4475,1.4563,1.4569,1.4575,0,0,0,0,0,1.5426,1.5404,1.5378,1.5356,1.5219,1.5135,1.5116,1.5039,1.5023,1.5005,1.4927,1.4872,1.4691,1.4698,1.4672,1.4659,1.4475,1.4475,1.4475,1.4561,1.4568,1.4575,0,0,0,0,0,0,1.5505,1.5388,1.5357,1.5301,1.5231,1.5118,1.5093,1.5049,1.4973,1.4968,1.4866,1.4838,1.4769,1.4705,1.4716,1.4606,1.4576,1.4571,1.465,1.4656,1.4662,1.4677,1.4642,0,0,0,0,0,1.5519,1.547,1.5366,1.5326,1.5293,1.5201,1.5161,1.5109,1.5027,1.4993,1.4909,1.4824,1.4748,1.4698,1.4621,1.4555,1.4523,1.4532,1.4538,1.4543,1.4539,1.4497,1.45,1.4476,1.4476,1.4476,0,0,1.554,1.5471,1.5444,1.534,1.5279,1.5224,1.5175,1.5117,1.5072,1.498,1.4905,1.4841,1.4737,1.4666,1.4629,1.461,1.4539,1.4544,1.4549,1.4541,1.4498,1.45,1.4502,1.4476,1.4476,1.4476,0,0,1.5553,1.5498,1.5459,1.5402,1.5314,1.5253,1.5244,1.5139,1.5097,1.5021,1.4952,1.4892,1.4763,1.4693,1.4641,1.4633,1.4577,1.4609,1.4637,1.4598,1.46,1.4601,1.4596,1.4595,1.4606,1.4606,1.4606,0,1.5589,1.5512,1.5442,1.5391,1.5345,1.5272,1.5228,1.5172,1.5059,1.5026,1.501,1.4849,1.4774,1.4685,1.4684,1.4645,1.4626,1.4621,1.4608,1.4608,1.4607,1.4601,1.4599,1.461,1.461,1.4609,1.4609,0,1.5559,1.5506,1.5484,1.539,1.5341,1.5293,1.521,1.5168,1.5121,1.5059,1.4981,1.489,1.4794,1.4769,1.4717,1.4672,1.4663,1.4629,1.4596,1.4615,1.4607,1.4604,1.4616,1.4615,1.4614,1.4612,0,0,1.5612,1.5486,1.5479,1.5436,1.5335,1.5288,1.5235,1.5152,1.5117,1.5041,1.499,1.4886,1.4856,1.4796,1.4736,1.4702,1.47,1.4671,1.4667,1.4678,1.464,1.4666,1.4665,1.4665,1.4664,1.4664,1.4649,0,1.5609,1.5522,1.5459,1.5391,1.5339,1.5271,1.5223,1.5153,1.5094,1.5034,1.4964,1.4893,1.4859,1.4823,1.4787,1.4709,1.469,1.4708,1.4608,1.4605,1.4635,1.4661,1.4687,1.4677,1.4645,1.4645,1.4644,0,1.5593,1.5533,1.5464,1.5372,1.5347,1.5308,1.5227,1.5174,1.5089,1.5049,1.4987,1.4928,1.4861,1.4838,1.4741,1.4755,1.471,1.4665,1.4663,1.4647,1.4624,1.4643,1.4672,1.467,1.4639,1.4639,1.464,0,1.5638,1.5537,1.5484,1.5449,1.534,1.5314,1.5265,1.5183,1.5137,1.5063,1.5032,1.4948,1.49,1.4832,1.4749,1.4741,1.4659,1.463,1.4617,1.4619,1.4599,1.4601,1.4619,1.4576,1.4576,1.4576,1.4576,0,1.564,1.5599,1.5503,1.547,1.5421,1.5346,1.5297,1.5241,1.5169,1.5117,1.5049,1.5,1.4895,1.4831,1.4764,1.4693,1.4671,1.4631,1.4613,1.4636,1.4641,1.4602,1.4599,1.4575,1.4575,1.4575,1.4576,0,1.568,1.5615,1.5551,1.5458,1.5433,1.5401,1.5316,1.5276,1.5217,1.5153,1.5132,1.5035,1.4957,1.487,1.4757,1.4713,1.4644,1.4619,1.4676,1.4666,1.4657,1.4659,1.4648,1.4641,1.4606,1.4607,1.4607,0,1.5684,1.5654,1.5559,1.5526,1.5483,1.5427,1.5384,1.5308,1.5263,1.5168,1.5139,1.5058,1.4989,1.4865,1.4778,1.4692,1.4663,1.4666,1.4649,1.4674,1.466,1.4663,1.4657,1.4669,1.467,1.4671,1.4671,0,1.5699,1.567,1.5615,1.5549,1.5502,1.5444,1.5381,1.5355,1.5265,1.5217,1.5143,1.5091,1.4983,1.4901,1.4806,1.4745,1.469,1.4679,1.4671,1.4692,1.4726,1.4706,1.4687,1.4678,1.4677,1.4677,1.4676,1.4676,1.5719,1.569,1.5621,1.5561,1.5509,1.5454,1.5414,1.5354,1.5294,1.5208,1.5164,1.5089,1.5002,1.4872,1.4814,1.4747,1.4729,1.4718,1.4715,1.4712,1.4718,1.4741,1.4729,1.4729,1.4728,1.4728,1.4728,0,1.5729,1.5684,1.5631,1.5552,1.5504,1.547,1.54,1.5359,1.5298,1.5228,1.5165,1.5078,1.4999,1.4909,1.4823,1.4787,1.4759,1.4766,1.4765,1.4752,1.474,1.4755,1.479,1.479,1.479,1.479,1.479,1.479,1.5729,1.5677,1.564,1.5559,1.551,1.5445,1.5407,1.5354,1.5298,1.5208,1.5147,1.5093,1.5012,1.4921,1.4844,1.4819,1.4788,1.4802,1.4769,1.4758,1.4753,1.4748,1.4762,1.4797,1.4797,1.4786,1.4786,1.4786]},{"header":{"parameterUnit":"m.s-1","parameterCategory":1,"la1":30.2991,"la2":30.254,"lo1":-89.0895,"lo2":-89.0444,"dy":0.0017,"dx":0.0017,"nx":28,"ny":28,"refTime":"2024-10-03T09:00:00:Z","depth":0,"parameterNumber":3,"parameterNumberName":"V-component_of_WINDS"},"data":[0,0,0,0,0,0,0,0,0,0,0,0,0,0,0,0,0,0,0,0,0,0,0,0,0,0,0,0,0,0,0,0,0,0,0,0,0,0,0,0,0,0,0,0,0,0,0,0,0,0,0,0,0,0,0,0,0,0,2.507,2.507,0,2.5084,2.5084,2.5084,2.5064,2.5063,2.5062,2.5062,2.5074,2.5075,2.5076,0,0,0,0,0,0,0,0,0,0,0,0,0,2.5022,2.5023,2.507,2.507,2.507,2.5084,2.5084,2.5085,2.5064,2.5063,2.5062,2.5061,2.5074,2.5075,2.5076,0,0,0,0,0,0,0,0,0,0,0,0,0,2.504,2.5023,2.507,2.5062,2.5061,2.5084,2.5084,2.5085,2.5064,2.5063,2.5062,2.5061,2.5073,2.5075,2.5076,2.5107,0,0,2.5081,2.5082,0,0,0,0,0,0,0,0,2.5039,2.5042,2.5063,2.5062,2.5062,2.5071,2.5072,2.5092,2.5064,2.5063,2.5062,2.506,2.5074,2.5075,2.508,2.5108,2.5109,2.5081,2.5082,2.5083,2.5083,0,0,0,0,0,0,0,2.5038,2.5041,2.5076,2.5063,2.5062,2.5056,2.5058,2.5076,2.5074,2.5063,2.5061,2.5064,2.5073,2.5079,2.508,2.5109,2.5081,2.5082,2.5083,2.5084,2.516,2.5161,0,0,0,0,0,0,2.5038,2.504,2.5075,2.5076,2.5048,2.5058,2.506,2.5069,2.5074,2.5074,2.5064,2.5062,2.5077,2.5079,2.5081,2.5115,2.5083,2.5084,2.5085,2.5159,2.516,2.5161,0,0,0,0,0,0,2.5037,2.5041,2.5074,2.5058,2.5061,2.506,2.5071,2.507,2.5075,2.5075,2.5075,2.507,2.5076,2.5079,2.51,2.5115,2.5085,2.5086,2.5157,2.5159,2.5161,2.5185,0,0,0,0,0,0,2.5036,2.5041,2.5054,2.5058,2.5062,2.5095,2.5072,2.5071,2.5078,2.5076,2.5081,2.508,2.5075,2.5098,2.5102,2.5117,2.5087,2.5156,2.5158,2.516,2.5183,2.5187,2.5191,0,0,0,0,0,2.5034,2.506,2.5054,2.5059,2.5078,2.5096,2.5098,2.5092,2.508,2.5091,2.5091,2.508,2.5114,2.5101,2.5105,2.512,2.5155,2.5157,2.516,2.5181,2.5187,2.5191,0,0,0,0,0,0,2.5057,2.5061,2.5054,2.5083,2.5089,2.5092,2.5107,2.5099,2.5108,2.5106,2.5098,2.5099,2.5122,2.5124,2.5109,2.5149,2.5132,2.5135,2.5147,2.5152,2.5156,2.5154,2.5089,0,0,0,0,0,2.5066,2.508,2.5082,2.5107,2.5111,2.5109,2.5116,2.5111,2.5117,2.5119,2.5121,2.5126,2.5137,2.5145,2.5156,2.5184,2.5183,2.5196,2.5201,2.5204,2.5206,2.5218,2.5223,2.5169,2.5169,2.5169,0,0,2.5083,2.5087,2.5096,2.5112,2.5116,2.513,2.5111,2.5127,2.5137,2.5122,2.5141,2.5143,2.5148,2.5173,2.5183,2.5175,2.5221,2.5207,2.521,2.521,2.5221,2.5226,2.5231,2.5171,2.5171,2.517,0,0,2.5121,2.5127,2.5147,2.5151,2.5158,2.5156,2.5161,2.5165,2.5165,2.5186,2.5174,2.5185,2.5206,2.5209,2.5214,2.5253,2.5242,2.5257,2.5277,2.5289,2.5293,2.5297,2.5308,2.5313,2.5259,2.5259,2.5259,0,2.5141,2.5163,2.5158,2.5174,2.518,2.5168,2.5187,2.5192,2.5201,2.5205,2.5196,2.522,2.5223,2.5247,2.5256,2.5261,2.5265,2.5255,2.5294,2.5297,2.53,2.5311,2.5315,2.5261,2.5261,2.5261,2.526,0,2.5186,2.5201,2.5216,2.5225,2.5234,2.5252,2.5248,2.5257,2.5251,2.525,2.5269,2.5273,2.5283,2.5289,2.5284,2.5311,2.5305,2.5295,2.5277,2.5307,2.5317,2.5321,2.5263,2.5262,2.5262,2.5262,0,0,2.5237,2.5244,2.5249,2.5252,2.5259,2.5269,2.5286,2.5296,2.5303,2.531,2.5322,2.534,2.533,2.5335,2.533,2.5341,2.5368,2.5329,2.5329,2.5334,2.5396,2.5401,2.5406,2.5362,2.5363,2.5364,2.5394,0,2.5273,2.5302,2.5297,2.5324,2.5337,2.5325,2.5339,2.5344,2.5343,2.5353,2.5352,2.5363,2.5351,2.5353,2.5364,2.5363,2.538,2.5361,2.5371,2.5372,2.5368,2.5412,2.5418,2.5447,2.5398,2.5399,2.5399,0,2.5318,2.5326,2.5355,2.5357,2.5363,2.5375,2.5383,2.5393,2.5398,2.5397,2.5402,2.5395,2.541,2.5394,2.5413,2.54,2.5405,2.5405,2.5406,2.5404,2.5386,2.5409,2.5456,2.5459,2.5406,2.5405,2.5405,0,2.5349,2.5368,2.5386,2.539,2.5395,2.5403,2.5405,2.5409,2.5415,2.5422,2.5425,2.5434,2.5438,2.5445,2.544,2.5429,2.5459,2.5443,2.5456,2.5456,2.5461,2.5461,2.5507,2.5469,2.5469,2.5468,2.5468,0,2.5387,2.5404,2.54,2.5411,2.5429,2.5424,2.5442,2.5443,2.5446,2.5456,2.5448,2.5457,2.5451,2.546,2.5456,2.5471,2.5474,2.5472,2.547,2.5471,2.5471,2.5472,2.5469,2.547,2.5469,2.5469,2.5469,0,2.5424,2.5422,2.5441,2.5444,2.5445,2.5458,2.546,2.5469,2.5468,2.5481,2.5484,2.5482,2.5491,2.5488,2.5498,2.5496,2.5514,2.5511,2.5513,2.5511,2.5523,2.5521,2.557,2.5575,2.5536,2.5536,2.5537,0,2.5447,2.546,2.5464,2.547,2.5473,2.5483,2.5489,2.5484,2.549,2.5496,2.5505,2.5514,2.5521,2.5537,2.5536,2.5543,2.5539,2.5555,2.554,2.554,2.5536,2.5534,2.5534,2.5557,2.5558,2.5558,2.5559,0,2.5487,2.5486,2.5494,2.5503,2.551,2.5516,2.5522,2.5527,2.5523,2.553,2.554,2.5545,2.5556,2.5564,2.5571,2.5572,2.5564,2.5564,2.5567,2.5567,2.5566,2.5564,2.5518,2.5562,2.5562,2.5562,2.5561,2.5561,2.5516,2.5526,2.5529,2.5539,2.5543,2.5548,2.5557,2.5557,2.5565,2.5573,2.557,2.5581,2.5584,2.5592,2.5595,2.5603,2.5596,2.5601,2.5602,2.5602,2.5603,2.5567,2.5604,2.5604,2.5604,2.5604,2.5604,0,2.5553,2.5555,2.5564,2.5572,2.5579,2.5572,2.5578,2.5584,2.5594,2.5598,2.5605,2.5615,2.5623,2.5623,2.563,2.5636,2.5633,2.5638,2.5636,2.5636,2.561,2.5605,2.5641,2.5641,2.5641,2.5641,2.5641,2.5641,2.5573,2.5589,2.5587,2.5604,2.5606,2.5617,2.562,2.5624,2.5627,2.5639,2.5646,2.5646,2.5648,2.5655,2.5662,2.5661,2.5663,2.567,2.5668,2.5642,2.5638,2.5635,2.563,2.5671,2.5671,2.5693,2.5694,2.5694]}]]